Midpoint, URN, title, Start Time, Stop Time,start_sol_number,stop_sol_number, start_local_mean_solar_time, stop_local_mean_solar_time, start_local_true_solar_time, stop_local_true_solar_time, start_solar_longitude, stop_solar_longitude, Ls, Mars Year, File Size (MB)
2021-02-19T22:01:41.98Z,urn:nasa:pds:mars2020_meda:data_calibrated_env:we__0001___________cal_eng_________________p,Mars 2020 MEDA Engineering Calibrated Data,2021-02-19T21:32:23.968Z,2021-02-19T22:29:59.996Z,1,1,00001M16:02:05.959,00001M16:58:09.518,0001 15:24:36,0001 16:20:40,6.148,6.168,6.06,36,0.458
2021-02-20T22:38:19.18Z,urn:nasa:pds:mars2020_meda:data_calibrated_env:we__0002___________cal_eng_________________p,Mars 2020 MEDA Engineering Calibrated Data,2021-02-20T22:33:37.678Z,2021-02-20T22:44:00.683Z,2,2,00002M16:23:09.684,00002M16:33:16.020,0002 15:45:59,0002 15:56:06,6.658,6.662,6.55,36,0.114
2021-02-22T23:14:27.60Z,urn:nasa:pds:mars2020_meda:data_calibrated_env:we__0004___________cal_eng_________________p,Mars 2020 MEDA Engineering Calibrated Data,2021-02-22T23:09:17.057Z,2021-02-22T23:19:37.062Z,4,4,00004M15:40:48.437,00004M15:50:51.853,0004 15:04:17,0004 15:14:21,7.647,7.651,7.53,36,0.129
2021-02-27T22:15:31.44Z,urn:nasa:pds:mars2020_meda:data_calibrated_env:we__0009___________cal_eng_________________p,Mars 2020 MEDA Engineering Calibrated Data,2021-02-27T21:59:07.430Z,2021-02-27T22:31:55.445Z,9,9,00009M11:19:52.978,00009M11:51:48.337,0009 10:45:00,0009 11:16:56,10.053,10.064,9.96,36,0.348
2021-03-01T02:07:24.23Z,urn:nasa:pds:mars2020_meda:data_calibrated_env:we__0010___________cal_eng_________________p,Mars 2020 MEDA Engineering Calibrated Data,2021-03-01T01:53:03.221Z,2021-03-01T02:21:45.235Z,10,10,00010M14:29:01.539,00010M14:56:57.479,0010 13:54:32,0010 14:22:28,10.615,10.625,10.44,36,0.27
2021-03-05T14:16:07.79Z,urn:nasa:pds:mars2020_meda:data_calibrated_env:we__0014___________cal_eng_________________p,Mars 2020 MEDA Engineering Calibrated Data,2021-03-05T14:14:11.296Z,2021-03-05T14:18:04.298Z,14,14,00014M23:56:13.069,00014M23:59:59.837,0014 23:23:15,0014 23:27:02,12.79,12.792,12.66,36,0.063
2021-03-06T02:09:31.13Z,urn:nasa:pds:mars2020_meda:data_calibrated_env:we__0015___________cal_eng_________________p,Mars 2020 MEDA Engineering Calibrated Data,2021-03-05T14:18:05.298Z,2021-03-06T14:00:56.971Z,15,15,00015M00:00:00.810,00015M23:04:48.304,0014 23:27:03,0015 22:32:11,12.792,13.266,12.85,36,4.719
2021-03-07T03:17:27.84Z,urn:nasa:pds:mars2020_meda:data_calibrated_env:we__0016___________cal_eng_________________p,Mars 2020 MEDA Engineering Calibrated Data,2021-03-06T14:58:40.998Z,2021-03-07T15:37:14.698Z,16,16,00016M00:00:59.649,00016M23:59:59.751,0015 23:28:23,0016 23:27:44,13.285,13.777,13.47,36,8.981
2021-03-08T03:28:12.53Z,urn:nasa:pds:mars2020_meda:data_calibrated_env:we__0017___________cal_eng_________________p,Mars 2020 MEDA Engineering Calibrated Data,2021-03-07T15:37:15.698Z,2021-03-08T15:20:09.371Z,17,17,00017M00:00:00.724,00017M23:04:50.164,0016 23:27:45,0017 22:32:55,13.777,14.25,13.95,36,8.098
2021-03-09T04:37:38.24Z,urn:nasa:pds:mars2020_meda:data_calibrated_env:we__0018___________cal_eng_________________p,Mars 2020 MEDA Engineering Calibrated Data,2021-03-08T16:17:51.398Z,2021-03-09T16:56:25.097Z,18,18,00018M00:00:59.563,00018M23:59:59.665,0017 23:29:06,0018 23:28:27,14.269,14.76,14.43,36,9.614
2021-03-09T20:34:32.20Z,urn:nasa:pds:mars2020_meda:data_calibrated_env:we__0019___________cal_eng_________________p,Mars 2020 MEDA Engineering Calibrated Data,2021-03-09T16:56:26.097Z,2021-03-10T00:12:38.304Z,19,19,00019M00:00:00.638,00019M07:04:32.588,0018 23:28:28,0019 06:33:06,14.76,14.904,14.67,36,2.715
2021-03-11T11:50:47.31Z,urn:nasa:pds:mars2020_meda:data_calibrated_env:we__0020___________cal_eng_________________p,Mars 2020 MEDA Engineering Calibrated Data,2021-03-11T05:25:59.133Z,2021-03-11T18:15:35.497Z,20,20,00020M11:30:58.696,00020M23:59:59.579,0020 10:59:58,0020 23:29:10,15.485,15.739,15.53,36,4.497
2021-03-12T06:35:23.34Z,urn:nasa:pds:mars2020_meda:data_calibrated_env:we__0021___________cal_eng_________________p,Mars 2020 MEDA Engineering Calibrated Data,2021-03-11T18:15:36.497Z,2021-03-12T18:55:10.197Z,21,21,00021M00:00:00.552,00021M23:59:59.049,0020 23:29:11,0021 23:29:31,15.739,16.228,15.86,36,9.395
2021-03-13T00:37:06.86Z,urn:nasa:pds:mars2020_meda:data_calibrated_env:we__0022___________cal_eng_________________p,Mars 2020 MEDA Engineering Calibrated Data,2021-03-12T18:55:11.197Z,2021-03-13T06:19:02.520Z,22,22,00022M00:00:00.022,00022M11:05:33.524,0021 23:29:32,0022 10:35:15,16.228,16.454,16.19,36,4.145
2021-03-19T16:54:24.40Z,urn:nasa:pds:mars2020_meda:data_calibrated_env:we__0028___________cal_eng_________________p,Mars 2020 MEDA Engineering Calibrated Data,2021-03-19T11:13:29.746Z,2021-03-19T22:36:19.069Z,28,28,00028M12:00:57.895,00028M23:05:31.054,0028 11:32:51,0028 22:37:35,19.391,19.614,19.41,36,4.188
2021-03-20T11:52:34.94Z,urn:nasa:pds:mars2020_meda:data_calibrated_env:we__0029___________cal_eng_________________p,Mars 2020 MEDA Engineering Calibrated Data,2021-03-19T23:33:17.096Z,2021-03-21T00:11:52.795Z,29,29,00029M00:00:57.630,00029M23:59:59.678,0028 23:33:02,0029 23:32:26,19.633,20.116,19.79,36,8.918
2021-03-21T12:03:42.13Z,urn:nasa:pds:mars2020_meda:data_calibrated_env:we__0030___________cal_eng_________________p,Mars 2020 MEDA Engineering Calibrated Data,2021-03-21T00:11:53.795Z,2021-03-21T23:55:30.469Z,30,30,00030M00:00:00.651,00030M23:05:31.942,0029 23:32:27,0030 22:38:19,20.116,20.581,20.26,36,8.348
2021-03-22T13:11:15.34Z,urn:nasa:pds:mars2020_meda:data_calibrated_env:we__0031___________cal_eng_________________p,Mars 2020 MEDA Engineering Calibrated Data,2021-03-22T00:52:27.496Z,2021-03-23T01:31:03.195Z,31,31,00031M00:00:57.544,00031M23:59:59.592,0030 23:33:46,0031 23:33:10,20.599,21.082,20.73,36,8.829
2021-03-23T13:50:21.40Z,urn:nasa:pds:mars2020_meda:data_calibrated_env:we__0032___________cal_eng_________________p,Mars 2020 MEDA Engineering Calibrated Data,2021-03-23T01:31:04.195Z,2021-03-24T02:10:37.895Z,32,32,00032M00:00:00.565,00032M23:59:59.063,0031 23:33:11,0032 23:33:31,21.082,21.563,21.2,36,8.879
2021-03-24T14:30:26.24Z,urn:nasa:pds:mars2020_meda:data_calibrated_env:we__0033___________cal_eng_________________p,Mars 2020 MEDA Engineering Calibrated Data,2021-03-24T02:10:38.895Z,2021-03-25T02:50:13.594Z,33,33,00033M00:00:00.036,00033M23:59:59.506,0032 23:33:32,0033 23:33:54,21.563,22.045,21.67,36,9.645
2021-03-25T15:10:31.94Z,urn:nasa:pds:mars2020_meda:data_calibrated_env:we__0034___________cal_eng_________________p,Mars 2020 MEDA Engineering Calibrated Data,2021-03-25T02:50:14.595Z,2021-03-26T03:29:49.294Z,34,34,00034M00:00:00.479,00034M23:59:59.950,0033 23:33:55,0034 23:34:16,22.045,22.525,22.23,36,9.04
2021-03-26T15:49:37.14Z,urn:nasa:pds:mars2020_meda:data_calibrated_env:we__0035___________cal_eng_________________p,Mars 2020 MEDA Engineering Calibrated Data,2021-03-26T03:29:50.294Z,2021-03-27T04:09:23.994Z,35,35,00035M00:00:00.923,00035M23:59:59.420,0034 23:34:17,0035 23:34:38,22.525,23.005,22.7,36,10.383
2021-03-27T16:29:42.34Z,urn:nasa:pds:mars2020_meda:data_calibrated_env:we__0036___________cal_eng_________________p,Mars 2020 MEDA Engineering Calibrated Data,2021-03-27T04:09:24.994Z,2021-03-28T04:48:59.694Z,36,36,00036M00:00:00.393,00036M23:59:59.864,0035 23:34:39,0036 23:35:00,23.005,23.485,23.16,36,9.602
2021-03-28T17:08:17.54Z,urn:nasa:pds:mars2020_meda:data_calibrated_env:we__0037___________cal_eng_________________p,Mars 2020 MEDA Engineering Calibrated Data,2021-03-28T04:49:00.694Z,2021-03-29T05:28:34.394Z,37,37,00037M00:00:00.837,00037M23:59:59.334,0036 23:35:01,0037 23:35:22,23.485,23.963,23.63,36,10.383
2021-03-29T17:48:22.74Z,urn:nasa:pds:mars2020_meda:data_calibrated_env:we__0038___________cal_eng_________________p,Mars 2020 MEDA Engineering Calibrated Data,2021-03-29T05:28:35.394Z,2021-03-30T06:08:10.094Z,38,38,00038M00:00:00.307,00038M23:59:59.778,0037 23:35:23,0038 23:35:44,23.963,24.442,24.1,36,9.817
2021-03-30T18:27:27.94Z,urn:nasa:pds:mars2020_meda:data_calibrated_env:we__0039___________cal_eng_________________p,Mars 2020 MEDA Engineering Calibrated Data,2021-03-30T06:08:11.094Z,2021-03-31T06:47:44.793Z,39,39,00039M00:00:00.751,00039M23:59:59.248,0038 23:35:45,0039 23:36:06,24.442,24.919,24.56,36,10.575
2021-03-31T18:39:28.13Z,urn:nasa:pds:mars2020_meda:data_calibrated_env:we__0040___________cal_eng_________________p,Mars 2020 MEDA Engineering Calibrated Data,2021-03-31T06:47:45.793Z,2021-04-01T06:31:10.467Z,40,40,00040M00:00:00.221,00040M23:05:19.833,0039 23:36:07,0040 22:41:48,24.919,25.378,25.03,36,4.512
2021-04-01T19:47:37.34Z,urn:nasa:pds:mars2020_meda:data_calibrated_env:we__0041___________cal_eng_________________p,Mars 2020 MEDA Engineering Calibrated Data,2021-04-01T07:28:19.494Z,2021-04-02T08:06:55.193Z,41,41,00041M00:00:57.114,00041M23:59:59.162,0040 23:37:26,0041 23:36:50,25.397,25.873,25.49,36,10.122
2021-04-02T20:26:43.54Z,urn:nasa:pds:mars2020_meda:data_calibrated_env:we__0042___________cal_eng_________________p,Mars 2020 MEDA Engineering Calibrated Data,2021-04-02T08:06:56.193Z,2021-04-03T08:46:30.893Z,42,42,00042M00:00:00.135,00042M23:59:59.606,0041 23:36:51,0042 23:37:13,25.873,26.349,25.95,36,6.387
2021-04-03T21:06:18.74Z,urn:nasa:pds:mars2020_meda:data_calibrated_env:we__0043___________cal_eng_________________p,Mars 2020 MEDA Engineering Calibrated Data,2021-04-03T08:46:31.893Z,2021-04-04T09:26:05.593Z,43,43,00043M00:00:00.579,00043M23:59:59.076,0042 23:37:14,0043 23:37:34,26.349,26.824,26.42,36,6.758
2021-04-04T21:17:18.93Z,urn:nasa:pds:mars2020_meda:data_calibrated_env:we__0044___________cal_eng_________________p,Mars 2020 MEDA Engineering Calibrated Data,2021-04-04T09:26:06.593Z,2021-04-05T09:09:31.266Z,44,44,00044M00:00:00.049,00044M23:05:19.661,0043 23:37:35,0044 22:43:16,26.824,27.281,26.97,36,9.754
2021-04-05T22:25:28.64Z,urn:nasa:pds:mars2020_meda:data_calibrated_env:we__0045___________cal_eng_________________p,Mars 2020 MEDA Engineering Calibrated Data,2021-04-05T10:06:40.293Z,2021-04-06T10:45:16.992Z,45,45,00045M00:00:56.942,00045M23:59:59.963,0044 23:38:54,0045 23:38:19,27.299,27.773,27.43,36,10.266
2021-04-06T22:36:29.82Z,urn:nasa:pds:mars2020_meda:data_calibrated_env:we__0046___________cal_eng_________________p,Mars 2020 MEDA Engineering Calibrated Data,2021-04-06T10:45:17.992Z,2021-04-07T10:28:41.665Z,46,46,00046M00:00:00.937,00046M23:05:19.575,0045 23:38:20,0046 22:44:00,27.773,28.229,27.9,36,9.157
2021-04-07T23:45:39.40Z,urn:nasa:pds:mars2020_meda:data_calibrated_env:we__0047___________cal_eng_________________p,Mars 2020 MEDA Engineering Calibrated Data,2021-04-07T11:25:50.692Z,2021-04-08T12:04:27.392Z,47,47,00047M00:00:56.856,00047M23:59:59.877,0046 23:39:38,0047 23:39:03,28.248,28.72,28.36,36,10.61
2021-04-09T00:24:15.24Z,urn:nasa:pds:mars2020_meda:data_calibrated_env:we__0048___________cal_eng_________________p,Mars 2020 MEDA Engineering Calibrated Data,2021-04-08T12:04:28.392Z,2021-04-09T12:44:02.092Z,48,48,00048M00:00:00.851,00048M23:59:59.348,0047 23:39:04,0048 23:39:25,28.72,29.193,28.82,36,9.469
2021-04-10T01:03:20.44Z,urn:nasa:pds:mars2020_meda:data_calibrated_env:we__0049___________cal_eng_________________p,Mars 2020 MEDA Engineering Calibrated Data,2021-04-09T12:44:03.092Z,2021-04-10T13:23:37.791Z,49,49,00049M00:00:00.321,00049M23:59:59.791,0048 23:39:26,0049 23:39:47,29.193,29.665,29.28,36,9.872
2021-04-11T01:15:20.13Z,urn:nasa:pds:mars2020_meda:data_calibrated_env:we__0050___________cal_eng_________________p,Mars 2020 MEDA Engineering Calibrated Data,2021-04-10T13:23:38.791Z,2021-04-11T13:07:01.465Z,50,50,00050M00:00:00.765,00050M23:05:18.429,0049 23:39:48,0050 22:45:27,29.665,30.119,29.74,36,9.743
2021-04-12T02:23:29.34Z,urn:nasa:pds:mars2020_meda:data_calibrated_env:we__0051___________cal_eng_________________p,Mars 2020 MEDA Engineering Calibrated Data,2021-04-11T14:04:10.492Z,2021-04-12T14:42:48.191Z,51,51,00051M00:00:55.710,00051M23:59:59.705,0050 23:41:05,0051 23:40:31,30.137,30.608,30.19,36,10.301
2021-04-13T03:02:36.40Z,urn:nasa:pds:mars2020_meda:data_calibrated_env:we__0052___________cal_eng_________________p,Mars 2020 MEDA Engineering Calibrated Data,2021-04-12T14:42:49.191Z,2021-04-13T15:22:22.891Z,52,52,00052M00:00:00.679,00052M23:59:59.176,0051 23:40:32,0052 23:40:52,30.608,31.079,30.79,36,9.266
2021-04-14T03:42:41.24Z,urn:nasa:pds:mars2020_meda:data_calibrated_env:we__0053___________cal_eng_________________p,Mars 2020 MEDA Engineering Calibrated Data,2021-04-13T15:22:23.891Z,2021-04-14T16:01:58.591Z,53,53,00053M00:00:00.149,00053M23:59:59.619,0052 23:40:53,0053 23:41:15,31.079,31.549,31.25,36,10.098
2021-04-15T03:53:40.93Z,urn:nasa:pds:mars2020_meda:data_calibrated_env:we__0054___________cal_eng_________________p,Mars 2020 MEDA Engineering Calibrated Data,2021-04-14T16:01:59.591Z,2021-04-15T15:45:22.264Z,54,54,00054M00:00:00.593,00054M23:05:18.257,0053 23:41:16,0054 22:46:54,31.549,32.001,31.71,36,9.399
2021-04-16T05:01:20.14Z,urn:nasa:pds:mars2020_meda:data_calibrated_env:we__0055___________cal_eng_________________p,Mars 2020 MEDA Engineering Calibrated Data,2021-04-15T16:42:31.291Z,2021-04-16T17:21:08.990Z,55,55,00055M00:00:55.538,00055M23:59:59.533,0054 23:42:33,0055 23:41:58,32.019,32.488,32.16,36,10.305
2021-04-17T05:40:27.34Z,urn:nasa:pds:mars2020_meda:data_calibrated_env:we__0056___________cal_eng_________________p,Mars 2020 MEDA Engineering Calibrated Data,2021-04-16T17:21:09.990Z,2021-04-17T18:00:44.690Z,56,56,00056M00:00:00.507,00056M23:59:59.977,0055 23:41:59,0056 23:42:21,32.488,32.956,32.62,36,9.485
2021-04-18T06:20:32.54Z,urn:nasa:pds:mars2020_meda:data_calibrated_env:we__0057___________cal_eng_________________p,Mars 2020 MEDA Engineering Calibrated Data,2021-04-17T18:00:45.690Z,2021-04-18T18:40:19.390Z,57,57,00057M00:00:00.950,00057M23:59:59.447,0056 23:42:21,0057 23:42:42,32.956,33.425,33.07,36,10.231
2021-04-19T07:00:37.74Z,urn:nasa:pds:mars2020_meda:data_calibrated_env:we__0058___________cal_eng_________________p,Mars 2020 MEDA Engineering Calibrated Data,2021-04-18T18:40:20.390Z,2021-04-19T19:19:55.090Z,58,58,00058M00:00:00.420,00058M23:59:59.891,0057 23:42:43,0058 23:43:04,33.425,33.892,33.53,36,9.934
2021-04-20T07:39:42.94Z,urn:nasa:pds:mars2020_meda:data_calibrated_env:we__0059___________cal_eng_________________p,Mars 2020 MEDA Engineering Calibrated Data,2021-04-19T19:19:56.090Z,2021-04-20T19:59:29.790Z,59,59,00059M00:00:00.864,00059M23:59:59.361,0058 23:43:05,0059 23:43:25,33.892,34.36,33.99,36,10.372
2021-04-21T08:19:18.13Z,urn:nasa:pds:mars2020_meda:data_calibrated_env:we__0060___________cal_eng_________________p,Mars 2020 MEDA Engineering Calibrated Data,2021-04-20T19:59:30.790Z,2021-04-21T20:39:05.489Z,60,60,00060M00:00:00.334,00060M23:59:59.805,0059 23:43:26,0060 23:43:47,34.36,34.826,34.44,36,10.465
2021-04-22T08:58:23.33Z,urn:nasa:pds:mars2020_meda:data_calibrated_env:we__0061___________cal_eng_________________p,Mars 2020 MEDA Engineering Calibrated Data,2021-04-21T20:39:06.489Z,2021-04-22T21:18:40.189Z,61,61,00061M00:00:00.778,00061M23:59:59.275,0060 23:43:48,0061 23:44:08,34.827,35.293,34.89,36,10.375
2021-04-23T09:10:28.52Z,urn:nasa:pds:mars2020_meda:data_calibrated_env:we__0062___________cal_eng_________________p,Mars 2020 MEDA Engineering Calibrated Data,2021-04-22T21:18:41.189Z,2021-04-23T21:02:15.862Z,62,62,00062M00:00:00.248,00062M23:05:29.592,0061 23:44:09,0062 22:49:59,35.293,35.741,35.48,36,9.735
2021-04-24T10:18:31.73Z,urn:nasa:pds:mars2020_meda:data_calibrated_env:we__0063___________cal_eng_________________p,Mars 2020 MEDA Engineering Calibrated Data,2021-04-23T21:59:12.889Z,2021-04-24T22:37:50.589Z,63,63,00063M00:00:55.194,00063M23:59:59.189,0062 23:45:25,0063 23:44:51,35.759,36.224,35.94,36,10.805
2021-04-25T10:57:38.93Z,urn:nasa:pds:mars2020_meda:data_calibrated_env:we__0064___________cal_eng_________________p,Mars 2020 MEDA Engineering Calibrated Data,2021-04-24T22:37:51.589Z,2021-04-25T23:17:26.289Z,64,64,00064M00:00:00.162,00064M23:59:59.633,0063 23:44:52,0064 23:45:12,36.224,36.689,36.39,36,10.137
2021-04-26T11:37:14.13Z,urn:nasa:pds:mars2020_meda:data_calibrated_env:we__0065___________cal_eng_________________p,Mars 2020 MEDA Engineering Calibrated Data,2021-04-25T23:17:27.289Z,2021-04-26T23:57:00.988Z,65,65,00065M00:00:00.606,00065M23:59:59.103,0064 23:45:13,0065 23:45:33,36.689,37.154,36.84,36,10.641
2021-04-27T12:16:19.33Z,urn:nasa:pds:mars2020_meda:data_calibrated_env:we__0066___________cal_eng_________________p,Mars 2020 MEDA Engineering Calibrated Data,2021-04-26T23:57:01.988Z,2021-04-28T00:36:36.688Z,66,66,00066M00:00:00.076,00066M23:59:59.547,0065 23:45:34,0066 23:45:55,37.154,37.618,37.29,36,9.719
2021-04-28T12:56:25.30Z,urn:nasa:pds:mars2020_meda:data_calibrated_env:we__0067___________cal_eng_________________p,Mars 2020 MEDA Engineering Calibrated Data,2021-04-28T00:36:37.688Z,2021-04-29T01:16:12.388Z,67,67,00067M00:00:00.520,00067M23:59:59.990,0066 23:45:56,0067 23:46:16,37.618,38.082,37.75,36,10.727
2021-04-29T13:36:30.23Z,urn:nasa:pds:mars2020_meda:data_calibrated_env:we__0068___________cal_eng_________________p,Mars 2020 MEDA Engineering Calibrated Data,2021-04-29T01:16:13.388Z,2021-04-30T01:55:47.088Z,68,68,00068M00:00:00.964,00068M23:59:59.461,0067 23:46:17,0068 23:46:37,38.082,38.545,38.2,36,9.86
2021-04-30T14:15:35.43Z,urn:nasa:pds:mars2020_meda:data_calibrated_env:we__0069___________cal_eng_________________p,Mars 2020 MEDA Engineering Calibrated Data,2021-04-30T01:55:48.088Z,2021-05-01T02:35:22.788Z,69,69,00069M00:00:00.434,00069M23:59:59.904,0068 23:46:38,0069 23:46:58,38.545,39.008,38.65,36,10.481
2021-05-01T14:55:40.63Z,urn:nasa:pds:mars2020_meda:data_calibrated_env:we__0070___________cal_eng_________________p,Mars 2020 MEDA Engineering Calibrated Data,2021-05-01T02:35:23.788Z,2021-05-02T03:14:57.487Z,70,70,00070M00:00:00.878,00070M23:59:59.375,0069 23:46:59,0070 23:47:19,39.008,39.471,39.19,36,10.926
2021-05-02T15:34:45.83Z,urn:nasa:pds:mars2020_meda:data_calibrated_env:we__0071___________cal_eng_________________p,Mars 2020 MEDA Engineering Calibrated Data,2021-05-02T03:14:58.487Z,2021-05-03T03:54:33.187Z,71,71,00071M00:00:00.348,00071M23:59:59.818,0070 23:47:20,0071 23:47:40,39.471,39.933,39.64,36,10.731
2021-05-03T15:46:44.52Z,urn:nasa:pds:mars2020_meda:data_calibrated_env:we__0072___________cal_eng_________________p,Mars 2020 MEDA Engineering Calibrated Data,2021-05-03T03:54:34.187Z,2021-05-04T03:37:54.860Z,72,72,00072M00:00:00.791,00072M23:05:16.510,0071 23:47:41,0072 22:53:17,39.933,40.377,40.09,36,10.852
2021-05-04T16:54:23.73Z,urn:nasa:pds:mars2020_meda:data_calibrated_env:we__0073___________cal_eng_________________p,Mars 2020 MEDA Engineering Calibrated Data,2021-05-04T04:35:03.888Z,2021-05-05T05:13:43.587Z,73,73,00073M00:00:53.791,00073M23:59:59.732,0072 23:48:55,0073 23:48:21,40.395,40.856,40.54,36,10.711
2021-05-05T17:33:31.43Z,urn:nasa:pds:mars2020_meda:data_calibrated_env:we__0074___________cal_eng_________________p,Mars 2020 MEDA Engineering Calibrated Data,2021-05-05T05:13:44.587Z,2021-05-06T05:53:18.287Z,74,74,00074M00:00:00.705,00074M23:59:59.203,0073 23:48:22,0074 23:48:42,40.856,41.317,40.98,36,9.555
2021-05-06T18:13:36.63Z,urn:nasa:pds:mars2020_meda:data_calibrated_env:we__0075___________cal_eng_________________p,Mars 2020 MEDA Engineering Calibrated Data,2021-05-06T05:53:19.287Z,2021-05-07T06:32:53.987Z,75,75,00075M00:00:00.176,00075M23:59:59.646,0074 23:48:43,0075 23:49:03,41.317,41.777,41.43,36,10.661
2021-05-07T18:24:38.82Z,urn:nasa:pds:mars2020_meda:data_calibrated_env:we__0076___________cal_eng_________________p,Mars 2020 MEDA Engineering Calibrated Data,2021-05-07T06:32:54.987Z,2021-05-08T06:16:22.660Z,76,76,00076M00:00:00.619,00076M23:05:23.150,0075 23:49:03,0076 22:54:46,41.777,42.22,41.88,36,9.262
2021-05-08T19:32:17.53Z,urn:nasa:pds:mars2020_meda:data_calibrated_env:we__0077___________cal_eng_________________p,Mars 2020 MEDA Engineering Calibrated Data,2021-05-08T07:12:30.686Z,2021-05-09T07:52:04.386Z,77,77,00077M00:00:01.063,00077M23:59:59.560,0076 23:49:24,0077 23:49:43,42.238,42.697,42.33,36,8.344
2021-05-09T19:43:19.72Z,urn:nasa:pds:mars2020_meda:data_calibrated_env:we__0078___________cal_eng_________________p,Mars 2020 MEDA Engineering Calibrated Data,2021-05-09T07:52:05.386Z,2021-05-10T07:35:34.059Z,78,78,00078M00:00:00.533,00078M23:05:24.038,0077 23:49:44,0078 22:55:27,42.697,43.14,42.78,36,8.356
2021-05-10T20:51:28.93Z,urn:nasa:pds:mars2020_meda:data_calibrated_env:we__0079___________cal_eng_________________p,Mars 2020 MEDA Engineering Calibrated Data,2021-05-10T08:32:43.086Z,2021-05-11T09:11:14.786Z,79,79,00079M00:01:01.319,00079M23:59:59.474,0078 23:51:05,0079 23:50:24,43.157,43.616,43.22,36,8.309
2021-05-11T21:03:36.12Z,urn:nasa:pds:mars2020_meda:data_calibrated_env:we__0080___________cal_eng_________________p,Mars 2020 MEDA Engineering Calibrated Data,2021-05-11T09:11:15.786Z,2021-05-12T08:54:56.459Z,80,80,00080M00:00:00.447,00080M23:05:35.631,0079 23:50:25,0080 22:56:19,43.616,44.058,43.67,36,8.379
2021-05-12T22:11:39.33Z,urn:nasa:pds:mars2020_meda:data_calibrated_env:we__0081___________cal_eng_________________p,Mars 2020 MEDA Engineering Calibrated Data,2021-05-12T09:51:53.486Z,2021-05-13T10:30:25.185Z,81,81,00081M00:01:01.232,00081M23:59:59.388,0080 23:51:45,0081 23:51:04,44.075,44.533,44.21,36,8.618
2021-05-13T22:22:16.52Z,urn:nasa:pds:mars2020_meda:data_calibrated_env:we__0082___________cal_eng_________________p,Mars 2020 MEDA Engineering Calibrated Data,2021-05-13T10:30:26.185Z,2021-05-14T10:14:06.859Z,82,82,00082M00:00:00.361,00082M23:05:35.544,0081 23:51:05,0082 22:56:59,44.533,44.974,44.65,36,8.352
2021-05-14T23:30:19.73Z,urn:nasa:pds:mars2020_meda:data_calibrated_env:we__0083___________cal_eng_________________p,Mars 2020 MEDA Engineering Calibrated Data,2021-05-14T11:11:03.886Z,2021-05-15T11:49:35.585Z,83,83,00083M00:01:01.146,00083M23:59:59.302,0082 23:52:25,0083 23:51:43,44.992,45.449,45.1,36,8.594
2021-05-15T23:41:26.92Z,urn:nasa:pds:mars2020_meda:data_calibrated_env:we__0084___________cal_eng_________________p,Mars 2020 MEDA Engineering Calibrated Data,2021-05-15T11:49:36.585Z,2021-05-16T11:33:17.258Z,84,84,00084M00:00:00.275,00084M23:05:35.458,0083 23:51:44,0084 22:57:38,45.449,45.89,45.54,36,8.352
2021-05-17T00:49:30.13Z,urn:nasa:pds:mars2020_meda:data_calibrated_env:we__0085___________cal_eng_________________p,Mars 2020 MEDA Engineering Calibrated Data,2021-05-16T12:30:14.285Z,2021-05-17T13:08:45.985Z,85,85,00085M00:01:01.060,00085M23:59:59.216,0084 23:53:05,0085 23:52:23,45.907,46.364,45.99,36,8.325
2021-05-18T01:00:37.32Z,urn:nasa:pds:mars2020_meda:data_calibrated_env:we__0086___________cal_eng_________________p,Mars 2020 MEDA Engineering Calibrated Data,2021-05-17T13:08:46.985Z,2021-05-18T12:52:27.658Z,86,86,00086M00:00:00.189,00086M23:05:35.372,0085 23:52:24,0086 22:58:17,46.364,46.804,46.43,36,9.258
2021-05-19T02:08:40.53Z,urn:nasa:pds:mars2020_meda:data_calibrated_env:we__0087___________cal_eng_________________p,Mars 2020 MEDA Engineering Calibrated Data,2021-05-18T13:49:24.685Z,2021-05-19T14:27:56.384Z,87,87,00087M00:01:00.974,00087M23:59:59.130,0086 23:53:44,0087 23:53:01,46.821,47.277,46.88,36,8.321
2021-05-20T02:19:47.72Z,urn:nasa:pds:mars2020_meda:data_calibrated_env:we__0088___________cal_eng_________________p,Mars 2020 MEDA Engineering Calibrated Data,2021-05-19T14:27:57.384Z,2021-05-20T14:11:38.058Z,88,88,00088M00:00:00.103,00088M23:05:35.286,0087 23:53:02,0088 22:58:56,47.277,47.716,47.32,36,9.2
2021-05-21T00:25:40.85Z,urn:nasa:pds:mars2020_meda:data_calibrated_env:we__0089___________cal_eng_________________p,Mars 2020 MEDA Engineering Calibrated Data,2021-05-20T15:08:35.085Z,2021-05-21T09:42:46.612Z,89,89,00089M00:01:00.888,00089M18:05:23.756,0088 23:54:22,0089 17:59:00,47.734,48.077,47.9,36,6.758